Le nostre stazioni meteo in Italia

Pubblicità
Il mio iltempo24.it
Kleine Brogel, Belgio (6479): Temperatura & dewpoint: 13.06.2019 01:00:00 - 19.06.2019 01:00:00 (CEST)Kleine Brogel, Belgio (6479): velocità del vento & gusts: 13.06.2019 01:00:00 - 19.06.2019 01:00:00 (CEST)Kleine Brogel, Belgio (6479): direzione del vento: 13.06.2019 01:00:00 - 19.06.2019 01:00:00 (CEST)Kleine Brogel, Belgio (6479): reduced air pressure: 13.06.2019 01:00:00 - 19.06.2019 01:00:00 (CEST)Kleine Brogel, Belgio (6479): visibility: 13.06.2019 01:00:00 - 19.06.2019 01:00:00 (CEST)
Data & Tempo tt [°C] td [°C] ff [km/h] ff [kn] fx [km/h] fx [kn] dd ppp [hPa] vv [km]
19.06.2019 01:00:00 18,3 15,4 4 2 4 2 N 1010,6 20
19.06.2019 00:00:00 19,5 16,2 0 0 0 0 N 1011,0 20
18.06.2019 23:00:00 19,7 15,2 0 0 - - N 1011,5 20
18.06.2019 22:00:00 21,8 14,9 4 2 4 2 N 1011,6 20
18.06.2019 21:00:00 23,7 14,6 4 2 7 4 N 1011,3 20
18.06.2019 20:00:00 25,7 13,0 4 2 - - N 1011,6 20
18.06.2019 19:00:00 27,0 12,6 4 2 7 4 N 1011,8 20
18.06.2019 18:00:00 26,2 13,0 4 2 7 4 N 1012,3 20
18.06.2019 17:00:00 27,1 12,0 4 2 - - N 1012,7 19
18.06.2019 16:00:00 27,8 11,8 4 2 14 8 N 1013,3 15
18.06.2019 15:00:00 27,8 13,2 11 6 14 8 SO 1013,7 15
18.06.2019 14:00:00 27,6 12,2 4 2 - - N 1014,2 15
18.06.2019 13:00:00 25,7 13,9 7 4 14 8 N 1014,6 15
18.06.2019 12:00:00 26,6 14,5 7 4 14 8 ENE 1014,7 15
18.06.2019 11:00:00 25,2 13,2 7 4 - - N 1015,2 15
18.06.2019 10:00:00 24,1 14,9 4 2 7 4 N 1015,7 15
18.06.2019 09:00:00 21,9 15,8 4 2 4 2 N 1015,7 15
18.06.2019 08:00:00 19,5 15,2 4 2 - - N 1015,8 15
18.06.2019 07:00:00 16,2 14,9 4 2 4 2 N 1015,8 13
18.06.2019 06:00:00 13,3 12,8 2 1 4 2 - 1016,0 1,7
18.06.2019 05:00:00 14,0 13,2 4 2 - - N 1016,0 14
18.06.2019 04:00:00 14,3 13,3 4 2 4 2 N 1016,3 18
18.06.2019 03:00:00 15,0 13,6 4 2 7 4 N 1016,7 20
18.06.2019 02:00:00 15,5 13,8 4 2 - - N 1017,0 20
18.06.2019 01:00:00 16,5 14,1 4 2 0 0 N 1017,0 20
18.06.2019 00:00:00 17,5 14,8 4 2 4 2 N 1017,1 20
17.06.2019 23:00:00 18,6 13,5 4 2 - - N 1017,2 20
17.06.2019 22:00:00 20,5 13,9 4 2 4 2 N 1017,2 20
17.06.2019 21:00:00 23,5 11,9 4 2 4 2 N 1017,2 20
17.06.2019 20:00:00 24,8 11,3 4 2 - - N 1017,2 20
17.06.2019 19:00:00 26,7 11,9 4 2 14 8 N 1017,5 20
17.06.2019 18:00:00 27,0 12,2 4 2 14 8 N 1017,7 20
17.06.2019 17:00:00 26,2 11,3 4 2 - - N 1018,2 20
17.06.2019 16:00:00 25,7 11,1 7 4 22 12 S 1018,6 20
17.06.2019 15:00:00 26,0 11,7 11 6 22 12 S 1019,2 20
17.06.2019 14:00:00 24,7 11,0 7 4 - - S 1019,7 20
17.06.2019 13:00:00 24,9 10,9 7 4 22 12 SSO 1020,0 20
17.06.2019 12:00:00 23,7 11,1 11 6 25 14 SO 1020,5 20
17.06.2019 11:00:00 23,2 12,6 7 4 - - SE 1020,8 20
17.06.2019 10:00:00 22,0 12,4 7 4 14 8 N 1021,2 20
17.06.2019 09:00:00 20,2 12,6 4 2 14 8 N 1021,3 20
17.06.2019 08:00:00 18,1 13,4 4 2 - - N 1021,3 20
17.06.2019 07:00:00 14,6 12,5 4 2 4 2 N 1021,5 20
17.06.2019 06:00:00 11,3 10,8 4 2 4 2 N 1021,7 20
17.06.2019 05:00:00 11,8 11,0 4 2 - - N 1021,7 20
17.06.2019 04:00:00 12,3 11,6 4 2 4 2 N 1021,8 12
17.06.2019 03:00:00 13,1 12,3 2 1 4 2 - 1021,7 6
17.06.2019 02:00:00 13,1 12,0 0 0 - - N 1022,1 18
17.06.2019 01:00:00 14,1 12,5 4 2 0 0 N 1021,8 20
17.06.2019 00:00:00 15,8 12,4 4 2 4 2 N 1021,8 20
16.06.2019 23:00:00 17,6 12,5 4 2 - - N 1021,7 20
16.06.2019 22:00:00 18,7 12,7 7 4 14 8 OSO 1021,5 20
16.06.2019 21:00:00 19,6 12,0 4 2 14 8 N 1021,2 20
16.06.2019 20:00:00 20,3 12,0 7 4 - - SSO 1021,2 20
16.06.2019 19:00:00 21,7 11,7 11 6 25 14 SSO 1021,0 20
16.06.2019 18:00:00 21,1 11,7 14 8 25 14 SO 1021,0 20
16.06.2019 17:00:00 21,9 11,4 14 8 - - SO 1020,8 20
16.06.2019 16:00:00 21,8 11,6 14 8 32 18 SO 1021,1 20
16.06.2019 15:00:00 21,5 12,4 22 12 32 18 SO 1020,8 20
16.06.2019 14:00:00 20,3 11,7 22 12 - - SO 1021,0 20
16.06.2019 13:00:00 20,0 12,3 22 12 29 16 SO 1021,0 20
16.06.2019 12:00:00 19,2 12,5 14 8 32 18 SSO 1020,8 20
16.06.2019 11:00:00 18,2 12,1 22 12 - - SO 1020,7 20
16.06.2019 10:00:00 18,7 12,3 18 10 29 16 SO 1020,2 20
16.06.2019 09:00:00 17,7 11,8 14 8 25 14 SO 1020,0 20
16.06.2019 08:00:00 16,2 11,5 18 10 - - SO 1019,7 20
16.06.2019 07:00:00 14,5 11,0 11 6 18 10 SSO 1019,2 20
16.06.2019 06:00:00 12,3 10,2 4 2 14 8 N 1019,2 20
16.06.2019 05:00:00 13,1 10,7 7 4 - - SO 1018,7 20
16.06.2019 04:00:00 13,6 11,7 4 2 11 6 N 1018,5 20
16.06.2019 03:00:00 12,8 11,9 4 2 11 6 N 1018,6 12
16.06.2019 02:00:00 13,1 12,4 2 1 - - - 1018,3 2,8
16.06.2019 01:00:00 13,0 12,5 4 2 4 2 N 1018,2 0,4
16.06.2019 00:00:00 13,6 12,7 2 1 4 2 - 1017,7 10
15.06.2019 23:00:00 14,6 13,3 4 2 - - N 1016,8 14
15.06.2019 22:00:00 16,2 13,5 4 2 18 10 N 1016,7 20
15.06.2019 21:00:00 18,8 13,8 11 6 22 12 NO 1016,2 20
15.06.2019 20:00:00 20,1 14,2 4 2 - - N 1015,6 20
15.06.2019 19:00:00 21,1 13,3 7 4 22 12 ONO 1015,6 20
15.06.2019 18:00:00 21,8 12,6 4 2 22 12 N 1015,5 20
15.06.2019 17:00:00 21,8 11,7 14 8 - - O 1015,6 20
15.06.2019 16:00:00 21,7 11,6 18 10 29 16 O 1015,6 20
15.06.2019 15:00:00 20,3 14,7 14 8 32 18 O 1015,6 20
15.06.2019 14:00:00 19,1 15,6 14 8 - - OSO 1015,5 19
15.06.2019 13:00:00 19,1 14,4 11 6 29 16 O 1014,8 20
15.06.2019 12:00:00 19,6 14,8 11 6 22 12 OSO 1014,2 20
15.06.2019 11:00:00 17,9 15,6 15 8 - - OSO 1013,7 10
15.06.2019 10:00:00 15,3 14,2 18 10 29 16 OSO 1013,0 14
15.06.2019 09:00:00 15,2 14,3 11 6 22 12 ONO 1011,8 19
15.06.2019 08:00:00 16,3 16,1 8 4 - - SO 1011,1 10
15.06.2019 07:00:00 16,2 16,1 7 4 11 6 SO 1011,1 6
15.06.2019 06:00:00 15,6 15,5 4 2 7 4 N 1011,1 2,8
15.06.2019 05:00:00 15,8 15,6 4 2 - - N 1010,7 2,2
15.06.2019 04:00:00 15,9 15,7 2 1 7 4 - 1010,3 3,8
15.06.2019 03:00:00 16,7 15,2 4 2 14 8 N 1011,0 13
15.06.2019 02:00:00 17,0 15,7 7 4 - - NNE 1011,1 20
15.06.2019 01:00:00 18,6 14,8 4 2 14 8 N 1012,1 20
15.06.2019 00:00:00 19,3 13,8 4 2 11 6 N 1012,6 20
14.06.2019 23:00:00 20,2 13,9 4 2 - - N 1012,7 20
14.06.2019 22:00:00 20,6 14,3 4 2 7 4 N 1012,6 20
14.06.2019 21:00:00 22,1 14,1 4 2 11 6 N 1012,5 20
14.06.2019 20:00:00 24,0 12,4 4 2 - - N 1012,6 20
14.06.2019 19:00:00 25,3 12,2 4 2 14 8 N 1012,7 20
14.06.2019 18:00:00 24,8 12,5 7 4 18 10 SO 1013,0 20
14.06.2019 17:00:00 24,2 12,9 11 6 - - OSO 1013,6 20
14.06.2019 16:00:00 24,1 13,0 11 6 25 14 OSO 1014,1 20
14.06.2019 15:00:00 23,4 12,7 18 10 29 16 SO 1014,7 20
14.06.2019 14:00:00 22,6 12,2 11 6 - - SO 1015,1 20
14.06.2019 13:00:00 21,5 11,9 14 8 29 16 SSO 1015,2 20
14.06.2019 12:00:00 20,2 12,3 11 6 29 16 S 1015,0 20
14.06.2019 11:00:00 17,2 14,0 7 4 - - SSE 1014,6 12
14.06.2019 10:00:00 17,0 11,8 4 2 14 8 N 1014,7 20
14.06.2019 09:00:00 16,5 12,5 7 4 14 8 SO 1015,7 20
14.06.2019 08:00:00 14,4 12,2 4 2 - - N 1014,5 20
14.06.2019 07:00:00 12,6 11,8 4 2 4 2 N 1013,7 20
14.06.2019 06:00:00 11,2 11,0 4 2 4 2 N 1013,7 20
14.06.2019 05:00:00 10,6 10,2 4 2 - - N 1013,5 10
14.06.2019 04:00:00 11,1 10,6 4 2 4 2 N 1013,3 19
14.06.2019 03:00:00 11,6 11,2 4 2 4 2 N 1013,8 14
14.06.2019 02:00:00 12,3 11,6 4 2 - - N 1014,2 14
14.06.2019 01:00:00 12,6 11,9 4 2 4 2 N 1014,2 20
14.06.2019 00:00:00 13,5 12,3 4 2 7 4 N 1014,3 20
13.06.2019 23:00:00 14,8 12,3 4 2 - - N 1013,8 19
13.06.2019 22:00:00 16,2 11,0 4 2 22 12 N 1012,7 20
13.06.2019 21:00:00 17,1 10,7 7 4 32 18 S 1012,3 20
13.06.2019 20:00:00 17,6 10,4 18 10 - - SSO 1011,7 20
13.06.2019 19:00:00 19,2 11,1 11 6 29 16 S 1011,5 20
13.06.2019 18:00:00 18,1 10,8 14 8 43 23 SSO 1011,7 20
13.06.2019 17:00:00 17,3 8,9 18 10 - - SSO 1012,5 20
13.06.2019 16:00:00 17,6 10,3 32 18 58 31 OSO 1012,3 20
13.06.2019 15:00:00 18,9 7,7 25 14 47 25 SSO 1012,0 20
13.06.2019 14:00:00 19,0 9,2 22 12 - - SSO 1012,2 20
13.06.2019 13:00:00 18,3 8,9 22 12 40 21 SSO 1012,7 20
13.06.2019 12:00:00 16,3 8,7 18 10 40 21 SSO 1012,7 20
13.06.2019 11:00:00 16,1 8,5 22 12 - - SSO 1012,5 20
13.06.2019 10:00:00 16,0 9,1 22 12 40 21 SSO 1012,2 20
13.06.2019 09:00:00 15,4 9,7 22 12 36 19 SSO 1012,0 20
13.06.2019 08:00:00 13,6 9,4 18 10 - - SSO 1011,7 20
13.06.2019 07:00:00 12,5 9,3 14 8 29 16 S 1011,7 20
13.06.2019 06:00:00 11,8 9,1 14 8 22 12 SSO 1011,5 20
13.06.2019 05:00:00 12,1 9,0 11 6 - - S 1010,8 20
13.06.2019 04:00:00 11,8 8,6 7 4 18 10 S 1010,7 20
13.06.2019 03:00:00 12,1 8,5 7 4 22 12 S 1010,7 20
13.06.2019 02:00:00 12,3 8,2 11 6 - - SSO 1011,0 20
13.06.2019 01:00:00 12,4 8,2 7 4 18 10 S 1010,7 20

tt = Temperatura
td = dewpoint
ff = velocità del vento
fx = gusts
dd = direzione del vento
ppp = reduced air pressure
vv = visibility

Stazioni seguenti

WeatherPro
AMSI
MeteoEarth